Tracking 31027 objects as of 19-Jul-2025
HD Live streaming from Space Station
objects crossing your sky now

TITAN 3C TRANSTAGE DEB

Track TITAN 3C TRANSTAGE DEB now!


NORAD ID: 43515
Int'l Code: 1969-013T
Perigee: 35,814.6 km
Apogee: 38,593.6 km
Inclination: 1.1 °
Period: 1,508.7 minutes
Semi major axis: 43575 km
RCS: Unknown
Launch date: February 9, 1969
Source: United States (US)
Launch site: ()

Note: This is SATELLITE DEBRIS
Your satellite tracking list
STARLINK-2062
Track 1 satellite(s)




NASA's NSSDC Master Catalog

Two Line Element Set (TLE):
1 43515U 69013T   25198.12373389 -.00000063  00000-0  00000-0 0  9998
2 43515   1.0641  42.3354 0318882 156.8029 204.7871  0.95443286 25023
Source of the keplerian elements: AFSPC